Location: Campillo
(40.8621°N, 4.2488°W)
Time: 13:16:35
(UTC+00:00)

Iridium 4 Rocket - Pass Details

Date: 11 May 2021
Orbit: 583 x 906 km, 86.9° (Epoch: 13 June)

Event Time Altitude Azimuth Distance (km) Brightness Sun altitude
Exits shadow 21:30:59 37° 149° (SSE) 1,338 4.2 -20.0°
Maximum altitude 21:33:08 60° 87° (E) 1,016 3.9 -20.3°
Drops below altitude 10° 21:38:57 10° 9° (N) 2,595 6.8 -21.0°
Sets 21:41:27 0° 6° (N) 3,541 7.6 -21.3°
